Weather History for Fort Worth Spinks, TX

Change the Weather History Date:

Friday, May 2, 2014

  Actual Average (KDFW) Record (KDFW)
Temperature  
Mean Temperature 63 °F 70 °F  
Max Temperature 82 °F 80 °F 95 °F (1943)
Min Temperature 44 °F 60 °F 44 °F (1978)
Degree Days  
Heating Degree Days 2 1  
Month to date heating degree days 2  
Since 1 July heating degree days 2278  
Cooling Degree Days 0 6  
Month to date cooling degree days 11  
Year to date cooling degree days 149  
Growing Degree Days 13 (Base 50)    
Moisture  
Dew Point 34 °F    
Average Humidity 46    
Maximum Humidity 76    
Minimum Humidity 11    
Precipitation  
Precipitation 0.00 in 0.15 in 2.45 in (2009)
Month to date precipitation 0.30  
Year to date precipitation 11.65  
Sea Level Pressure  
Sea Level Pressure 30.01 in    
Wind  
Wind Speed 3 mph (WSW)    
Max Wind Speed 15 mph    
Max Gust Speed 22 mph    
Visibility 13 miles    
Events      
T = Trace of Precipitation, MM = Missing Value Source: NWS Daily Summary

Daily Weather History Graph

Daily Weather History Graph

Search for Another Location

Airport:

Trip Planner

Search our weather history database for the weather conditions in past years. The results will help you decide how hot, cold, wet, or windy it might be!

Date:

Astronomy

May. 02, 2014 Rise Set
Actual Time 6:41 AM CDT 8:11 PM CDT
Civil Twilight 6:15 AM CDT 8:37 PM CDT
Nautical Twilight 5:43 AM CDT 9:09 PM CDT
Astronomical Twilight 5:10 AM CDT 9:42 PM CDT
Moon 9:23 AM CDT (5/2) 11:31 PM CDT (5/2)
Length of Visible Light 14h 22m
Length of Day
13h 30m
Waxing Crescent, 12% of the Moon is Illuminated
May 2
Waxing Crescent
May 6
First Quarter
May 14
Full
May 21
Last Quarter
May 28
New

Hourly Weather History & Observations

Time (CDT) Temp. Windchill Dew Point Humidity Pressure Visibility Wind Dir Wind Speed Gust Speed Precip Events Conditions
12:15 AM 54.7 °F - 39.6 °F 57% 30.07 in 10.0 mi Calm Calm - N/A   Clear
12:35 AM 52.7 °F - 40.8 °F 64% 30.07 in 10.0 mi Calm Calm - N/A   Clear
12:55 AM 51.1 °F - 40.1 °F 66% 30.06 in 10.0 mi Calm Calm - N/A   Clear
1:15 AM 52.2 °F - 39.4 °F 62% 30.06 in 10.0 mi Calm Calm - N/A   Clear
1:35 AM 52.3 °F - 40.3 °F 64% 30.05 in 10.0 mi Calm Calm - N/A   Clear
1:55 AM 48.7 °F - 39.6 °F 71% 30.04 in 10.0 mi Calm Calm - N/A   Clear
2:15 AM 48.0 °F - 39.2 °F 72% 30.04 in 10.0 mi Calm Calm - N/A   Clear
2:35 AM 46.0 °F - 38.7 °F 75% 30.04 in 10.0 mi Calm Calm - N/A   Clear
2:55 AM 46.9 °F - 38.7 °F 73% 30.03 in 10.0 mi SSW 4.6 mph - N/A   Clear
3:15 AM 46.6 °F - 38.3 °F 73% 30.04 in 10.0 mi SSW 3.5 mph - N/A   Clear
3:35 AM 47.1 °F - 38.5 °F 72% 30.03 in 10.0 mi South 3.5 mph - N/A   Clear
3:55 AM 46.0 °F 43.9 °F 38.1 °F 74% 30.04 in 10.0 mi South 4.6 mph - N/A   Clear
4:15 AM 47.1 °F - 37.4 °F 69% 30.04 in 10.0 mi SSW 4.6 mph - N/A   Clear
4:35 AM 48.4 °F - 36.9 °F 64% 30.04 in 10.0 mi SSW 4.6 mph - N/A   Clear
4:55 AM 48.4 °F - 37.2 °F 65% 30.04 in 10.0 mi SSW 3.5 mph - N/A   Clear
5:15 AM 49.6 °F - 36.5 °F 61% 30.04 in 10.0 mi SSW 4.6 mph - N/A   Clear
5:35 AM 45.9 °F 43.6 °F 37.9 °F 74% 30.04 in 10.0 mi SSE 4.6 mph - N/A   Clear
5:55 AM 45.7 °F 44.4 °F 37.4 °F 73% 30.04 in 10.0 mi South 3.5 mph - N/A   Clear
6:15 AM 46.2 °F - 36.5 °F 69% 30.04 in 10.0 mi Calm Calm - N/A   Clear
6:35 AM 46.2 °F 44.1 °F 36.7 °F 69% 30.04 in 10.0 mi South 4.6 mph - N/A   Clear
6:50 AM 44.6 °F 40.2 °F 37.4 °F 76% 30.04 in 20.0 mi SSW 8.1 mph - N/A   Clear
7:52 AM 53.6 °F - 39.2 °F 58% 30.06 in 20.0 mi WSW 8.1 mph - N/A   Clear
8:50 AM 62.6 °F - 33.8 °F 34% 30.07 in 20.0 mi West 10.4 mph - N/A   Clear
9:50 AM 68.0 °F - 33.8 °F 28% 30.07 in 20.0 mi West 6.9 mph - N/A   Partly Cloudy
10:52 AM 73.4 °F - 33.8 °F 23% 30.06 in 20.0 mi WSW 4.6 mph - N/A   Clear
11:49 AM 78.8 °F - 28.4 °F 16% 30.05 in 20.0 mi West 10.4 mph - N/A   Clear
12:55 PM 78.8 °F - 24.8 °F 14% 30.02 in 20.0 mi WNW 15.0 mph 19.6 mph N/A   Scattered Clouds
1:51 PM 78.8 °F - 24.8 °F 14% 30.00 in 20.0 mi West 6.9 mph 20.7 mph N/A   Scattered Clouds
2:50 PM 80.6 °F - 24.8 °F 13% 29.97 in 20.0 mi West 10.4 mph - N/A   Scattered Clouds
3:50 PM 82.4 °F - 26.6 °F 13% 29.95 in 20.0 mi West 8.1 mph - N/A   Scattered Clouds
4:50 PM 82.4 °F - 24.8 °F 12% 29.93 in 20.0 mi West 13.8 mph 21.9 mph N/A   Partly Cloudy
5:51 PM 82.4 °F - 23.0 °F 11% 29.93 in 20.0 mi West 9.2 mph - N/A   Partly Cloudy
6:51 PM 80.6 °F - 24.8 °F 13% 29.92 in 20.0 mi NW 5.8 mph - N/A   Clear
7:15 PM 78.8 °F - 23.2 °F 13% 29.92 in 10.0 mi WNW 5.8 mph - N/A   Clear
7:35 PM 77.0 °F - 25.3 °F 15% 29.92 in 10.0 mi NW 3.5 mph - N/A   Clear
7:55 PM 74.5 °F - 26.4 °F 17% 29.92 in 10.0 mi WNW 4.6 mph - N/A   Clear
8:15 PM 74.3 °F - 27.0 °F 17% 29.93 in 10.0 mi NW 4.6 mph - N/A   Clear
8:35 PM 66.9 °F - 31.3 °F 27% 29.93 in 10.0 mi Calm Calm - N/A   Clear
8:55 PM 63.3 °F - 32.2 °F 31% 29.95 in 10.0 mi North 6.9 mph - N/A   Clear
9:15 PM 64.4 °F - 32.2 °F 30% 29.96 in 10.0 mi North 6.9 mph - N/A   Clear
9:35 PM 66.2 °F - 32.0 °F 28% 29.97 in 10.0 mi North 4.6 mph - N/A   Clear
9:55 PM 63.3 °F - 33.4 °F 33% 29.97 in 10.0 mi Calm Calm - N/A   Clear
10:15 PM 57.2 °F - 34.3 °F 42% 29.98 in 10.0 mi Calm Calm - N/A   Clear
10:35 PM 56.7 °F - 35.8 °F 46% 29.99 in 10.0 mi Calm Calm - N/A   Clear
10:55 PM 55.6 °F - 35.8 °F 47% 30.00 in 10.0 mi Calm Calm - N/A   Clear
11:15 PM 56.8 °F - 36.0 °F 46% 30.00 in 10.0 mi Calm Calm - N/A   Clear
11:35 PM 52.2 °F - 37.0 °F 56% 30.00 in 10.0 mi Calm Calm - N/A   Clear
11:55 PM 50.5 °F - 39.0 °F 65% 30.00 in 10.0 mi Calm Calm - N/A   Clear